Find Starlink 32640

NORAD ID: 62198 Int'l Des: 2024-229 Owner: SPXS Country: US Constellation: starlink operational
LEOCIRCULAR

当前视图

正在加载3D地球...

About Starlink 32640

Starlink 32640 (NORAD 62198) is a starlink constellation satellite (v2 mini) launched Dec 4, 2024 by SPXS of US. It operates in LEO, CIRCULAR orbit with a mass of 730.00 kg.

关于 Starlink 32640

正在加载描述...

即将过境

Passes for default location (London). Set your location on the main map for personalized predictions.

高度历史

Loading altitude history...

两行轨道根数

1 62198U 24229G 26160.55787086 .00015672 00000-0 57770-3 0 9996
2 62198 43.0000 111.6998 0001345 275.6847 84.3852 15.27587256 84619
Epoch: Jun 9, 2026 • Age: 23 hours

当前状态

高度 484.0 km
速度 7.63 km/s
星下点 28.08°N, 173.56°E
发射日期 Dec 4, 2024
运行时间 1.5 years
类型 internet

技术详情

分类 Payload
质量 730.00 kg
干质量 700.00 kg
总质量 730.00 kg
长度 0.30 m
直径 4.10 m
跨度 29.00 m
形状 Box + pan
制造商 SPXS
平台类型 Starlink V2M
阶段状态 In Orbit
所有者/国家 SPXS/US

Most Searched